• In Slovakia
  • List of Countries
  • For 7 days
  • Water Temperature
  • Satellite Maps
  • Weather Map
  • Weather Widgets
  • user-avatar
    Login

    Hourly Weather Yulara

    Today, 20 May, Sunday

    Time Temperature Precipitation Wind Pressure Humidity
    00:00 +12°C° 0 mm 5 mps 724 mmHg 53%
    01:00 +12°C° 0 mm 4 mps 724 mmHg 56%
    02:00 +11°C° 0 mm 4 mps 724 mmHg 59%
    03:00 +11°C° 0 mm 4 mps 723 mmHg 61%
    04:00 +11°C° 0 mm 4 mps 724 mmHg 63%
    05:00 +10°C° 0 mm 4 mps 724 mmHg 66%
    06:00 +10°C° 0 mm 4 mps 724 mmHg 68%
    07:00 +12°C° 0 mm 5 mps 724 mmHg 62%
    08:00 +13°C° 0 mm 6 mps 725 mmHg 57%
    09:00 +15°C° 0 mm 7 mps 725 mmHg 52%
    10:00 +16°C° 0 mm 7 mps 725 mmHg 47%
    11:00 +18°C° 0 mm 7 mps 725 mmHg 41%
    12:00 +21°C° 0 mm 7 mps 724 mmHg 35%
    13:00 +22°C° 0 mm 7 mps 724 mmHg 33%
    14:00 +22°C° 0 mm 7 mps 724 mmHg 31%
    15:00 +24°C° 0 mm 7 mps 723 mmHg 26%
    16:00 +22°C° 0 mm 6 mps 723 mmHg 30%
    17:00 +21°C° 0 mm 6 mps 723 mmHg 33%
    18:00 +19°C° 0 mm 5 mps 724 mmHg 37%
    19:00 +17°C° 0 mm 5 mps 724 mmHg 40%
    20:00 +16°C° 0 mm 5 mps 724 mmHg 44%
    21:00 +15°C° 0 mm 5 mps 725 mmHg 48%
    22:00 +15°C° 0 mm 5 mps 725 mmHg 51%
    23:00 +14°C° 0 mm 5 mps 725 mmHg 53%

    Tomorrow, 21 May, Monday

    Time Temperature Precipitation Wind Pressure Humidity
    00:00 +13°C° 0 mm 5 mps 725 mmHg 56%
    01:00 +13°C° 0 mm 5 mps 725 mmHg 58%
    02:00 +12°C° 0 mm 5 mps 725 mmHg 60%
    03:00 +12°C° 0 mm 5 mps 725 mmHg 61%
    04:00 +10°C° 0 mm 5 mps 725 mmHg 61%
    05:00 +10°C° 0 mm 5 mps 725 mmHg 61%
    06:00 +10°C° 0 mm 5 mps 725 mmHg 61%
    07:00 +11°C° 0 mm 6 mps 726 mmHg 54%
    08:00 +14°C° 0 mm 7 mps 726 mmHg 48%
    09:00 +15°C° 0 mm 8 mps 726 mmHg 42%
    10:00 +17°C° 0 mm 8 mps 726 mmHg 38%
    11:00 +18°C° 0 mm 7 mps 726 mmHg 34%
    12:00 +21°C° 0 mm 7 mps 726 mmHg 30%
    13:00 +22°C° 0 mm 7 mps 725 mmHg 28%
    14:00 +22°C° 0 mm 7 mps 725 mmHg 26%
    15:00 +23°C° 0 mm 8 mps 724 mmHg 24%
    16:00 +21°C° 0 mm 7 mps 725 mmHg 27%
    17:00 +20°C° 0 mm 6 mps 725 mmHg 29%
    18:00 +17°C° 0 mm 6 mps 725 mmHg 32%
    19:00 +16°C° 0 mm 6 mps 725 mmHg 35%
    20:00 +16°C° 0 mm 6 mps 725 mmHg 38%
    21:00 +15°C° 0 mm 6 mps 726 mmHg 42%
    22:00 +14°C° 0 mm 6 mps 726 mmHg 43%
    23:00 +13°C° 0 mm 5 mps 726 mmHg 45%

    Day after tomorrow, 22 May, Tuesday

    Time Temperature Precipitation Wind Pressure Humidity
    00:00 +13°C° 0 mm 5 mps 726 mmHg 47%
    01:00 +12°C° 0 mm 5 mps 726 mmHg 47%
    02:00 +12°C° 0 mm 5 mps 726 mmHg 48%
    03:00 +10°C° 0 mm 5 mps 726 mmHg 48%
    04:00 +10°C° 0 mm 5 mps 726 mmHg 50%
    05:00 +9°C° 0 mm 5 mps 726 mmHg 51%
    06:00 +9°C° 0 mm 5 mps 726 mmHg 53%
    07:00 +11°C° 0 mm 6 mps 726 mmHg 49%
    08:00 +12°C° 0 mm 7 mps 726 mmHg 45%
    09:00 +15°C° 0 mm 9 mps 727 mmHg 41%
    10:00 +16°C° 0 mm 9 mps 726 mmHg 36%
    11:00 +18°C° 0 mm 9 mps 726 mmHg 32%
    12:00 +21°C° 0 mm 9 mps 726 mmHg 27%
    13:00 +21°C° 0 mm 9 mps 725 mmHg 26%
    14:00 +22°C° 0 mm 9 mps 724 mmHg 24%
    15:00 +23°C° 0 mm 9 mps 724 mmHg 23%
    16:00 +21°C° 0 mm 8 mps 724 mmHg 26%
    17:00 +20°C° 0 mm 6 mps 724 mmHg 29%
    18:00 +17°C° 0 mm 5 mps 724 mmHg 32%
    19:00 +16°C° 0 mm 5 mps 724 mmHg 35%
    20:00 +16°C° 0 mm 5 mps 725 mmHg 37%
    21:00 +15°C° 0 mm 5 mps 725 mmHg 40%
    22:00 +14°C° 0 mm 5 mps 725 mmHg 42%
    23:00 +14°C° 0 mm 5 mps 725 mmHg 44%

    23 May, Wednesday

    Time Temperature Precipitation Wind Pressure Humidity
    00:00 +13°C° 0 mm 5 mps 725 mmHg 47%
    01:00 +13°C° 0 mm 5 mps 725 mmHg 48%
    02:00 +12°C° 0 mm 5 mps 725 mmHg 49%
    03:00 +12°C° 0 mm 5 mps 724 mmHg 51%
    04:00 +11°C° 0 mm 4 mps 724 mmHg 52%
    05:00 +11°C° 0 mm 4 mps 724 mmHg 53%
    06:00 +10°C° 0 mm 4 mps 725 mmHg 55%
    07:00 +12°C° 0 mm 5 mps 725 mmHg 50%
    08:00 +13°C° 0 mm 6 mps 725 mmHg 46%
    09:00 +15°C° 0 mm 7 mps 725 mmHg 41%
    10:00 +17°C° 0 mm 7 mps 725 mmHg 36%
    11:00 +20°C° 0 mm 7 mps 725 mmHg 30%
    12:00 +21°C° 0 mm 7 mps 725 mmHg 25%
    13:00 +22°C° 0 mm 7 mps 724 mmHg 23%
    14:00 +22°C° 0 mm 6 mps 723 mmHg 21%
    15:00 +23°C° 0 mm 6 mps 723 mmHg 20%
    16:00 +22°C° 0 mm 6 mps 723 mmHg 22%
    17:00 +20°C° 0 mm 5 mps 723 mmHg 24%
    18:00 +18°C° 0 mm 4 mps 723 mmHg 27%
    19:00 +17°C° 0 mm 4 mps 723 mmHg 29%
    20:00 +15°C° 0 mm 4 mps 723 mmHg 31%
    21:00 +14°C° 0 mm 4 mps 724 mmHg 33%
    22:00 +14°C° 0 mm 4 mps 724 mmHg 35%
    23:00 +13°C° 0 mm 4 mps 724 mmHg 37%

    24 May, Thursday

    Time Temperature Precipitation Wind Pressure Humidity
    00:00 +13°C° 0 mm 4 mps 723 mmHg 39%
    01:00 +12°C° 0 mm 4 mps 723 mmHg 41%
    02:00 +11°C° 0 mm 4 mps 723 mmHg 44%
    03:00 +11°C° 0 mm 4 mps 722 mmHg 46%
    04:00 +10°C° 0 mm 4 mps 723 mmHg 48%
    05:00 +10°C° 0 mm 4 mps 723 mmHg 51%
    06:00 +10°C° 0 mm 4 mps 723 mmHg 53%
    07:00 +11°C° 0 mm 4 mps 724 mmHg 50%
    08:00 +13°C° 0 mm 5 mps 724 mmHg 47%
    09:00 +14°C° 0 mm 5 mps 724 mmHg 43%
    10:00 +16°C° 0 mm 5 mps 724 mmHg 38%
    11:00 +19°C° 0 mm 6 mps 723 mmHg 33%
    12:00 +21°C° 0 mm 6 mps 723 mmHg 27%
    13:00 +21°C° 0 mm 6 mps 722 mmHg 25%
    14:00 +22°C° 0 mm 5 mps 722 mmHg 23%
    15:00 +23°C° 0 mm 5 mps 721 mmHg 20%
    16:00 +21°C° 0 mm 5 mps 721 mmHg 23%
    17:00 +20°C° 0 mm 4 mps 721 mmHg 26%
    18:00 +18°C° 0 mm 4 mps 721 mmHg 29%
    19:00 +17°C° 0 mm 4 mps 721 mmHg 33%
    20:00 +15°C° 0 mm 4 mps 722 mmHg 37%
    21:00 +14°C° 0 mm 4 mps 722 mmHg 40%
    22:00 +14°C° 0 mm 4 mps 722 mmHg 45%
    23:00 +13°C° 0 mm 4 mps 722 mmHg 49%

    25 May, Friday

    Time Temperature Precipitation Wind Pressure Humidity
    00:00 +13°C° 0 mm 4 mps 721 mmHg 54%
    01:00 +12°C° 0 mm 4 mps 721 mmHg 57%
    02:00 +12°C° 0 mm 4 mps 721 mmHg 60%
    03:00 +12°C° 0 mm 4 mps 721 mmHg 63%
    04:00 +11°C° 0 mm 4 mps 721 mmHg 67%
    05:00 +11°C° 0 mm 4 mps 721 mmHg 70%
    06:00 +10°C° 0 mm 4 mps 721 mmHg 73%
    07:00 +12°C° 0 mm 4 mps 721 mmHg 67%
    08:00 +14°C° 0 mm 5 mps 721 mmHg 62%
    09:00 +15°C° 0 mm 6 mps 721 mmHg 56%
    10:00 +17°C° 0 mm 6 mps 721 mmHg 49%
    11:00 +20°C° 0 mm 6 mps 721 mmHg 41%
    12:00 +22°C° 0 mm 6 mps 720 mmHg 34%
    13:00 +23°C° 0 mm 6 mps 719 mmHg 31%
    14:00 +23°C° 0 mm 5 mps 719 mmHg 28%
    15:00 +25°C° 0 mm 5 mps 718 mmHg 25%
    16:00 +23°C° 0 mm 4 mps 718 mmHg 27%
    17:00 +21°C° 0 mm 4 mps 718 mmHg 30%
    18:00 +19°C° 0 mm 3 mps 719 mmHg 32%
    19:00 +19°C° 0 mm 3 mps 719 mmHg 34%
    20:00 +18°C° 0 mm 4 mps 719 mmHg 36%
    21:00 +17°C° 0 mm 4 mps 720 mmHg 38%
    22:00 +17°C° 0 mm 4 mps 719 mmHg 39%
    23:00 +16°C° 0 mm 3 mps 719 mmHg 41%
    Show more